Weather History for KRBD - April, 2013

Change the Weather History Date:

Friday, April 19, 2013

  Actual Average Record
Temperature  
Mean Temperature 51 °F -  
Max Temperature 63 °F 74 °F 88 °F (2011)
Min Temperature 39 °F 55 °F 39 °F (2013)
Degree Days  
Heating Degree Days 14    
Growing Degree Days 1 (Base 50)    
Moisture  
Dew Point 30 °F    
Average Humidity 49    
Maximum Humidity 79    
Minimum Humidity 25    
Precipitation  
Precipitation 0.00 in - - ()
Sea Level Pressure  
Sea Level Pressure 30.20 in    
Wind  
Wind Speed 9 mph (NW)    
Max Wind Speed 18 mph    
Max Gust Speed 25 mph    
Visibility 10 miles    
Events      
Averages and records for this station are not official NWS values.
T = Trace of Precipitation, MM = Missing Value Source: NWS Daily Summary

Daily Weather History Graph

Daily Weather History Graph

Search for Another Location

Airport or City:

Trip Planner

Search our weather history database for the weather conditions in past years. The results will help you decide how hot, cold, wet, or windy it might be!

Date:

Astronomy

Apr. 19, 2013 Rise Set
Actual Time 6:52 AM CDT 8:00 PM CDT
Civil Twilight 6:27 AM CDT 8:26 PM CDT
Nautical Twilight 5:57 AM CDT 8:56 PM CDT
Astronomical Twilight 5:25 AM CDT 9:27 PM CDT
Moon 2:05 PM CDT (4/19) 2:48 AM CDT (4/19)
Length of Visible Light 13h 58m
Length of Day
13h 07m
First Quarter, 62% of the Moon is Illuminated
Apr 19
First Quarter
Apr 25
Full
May 2
Last Quarter
May 9
New
May 17
First Quarter

Hourly Weather History & Observations

Time (CDT) Temp. Windchill Dew Point Humidity Pressure Visibility Wind Dir Wind Speed Gust Speed Precip Events Conditions
12:53 AM 42.1 °F 37.7 °F 33.1 °F 70% 30.16 in 10.0 mi North 6.9 mph - N/A   Clear
1:53 AM 43.0 °F 38.2 °F 32.0 °F 65% 30.15 in 10.0 mi NNW 8.1 mph - N/A   Clear
2:53 AM 41.0 °F 37.1 °F 30.9 °F 67% 30.14 in 10.0 mi NNW 5.8 mph - N/A   Clear
3:53 AM 39.0 °F 34.8 °F 33.1 °F 79% 30.17 in 10.0 mi WNW 5.8 mph - N/A   Clear
4:53 AM 39.0 °F 33.4 °F 30.9 °F 73% 30.19 in 10.0 mi WNW 8.1 mph - N/A   Clear
5:53 AM 39.9 °F 34.5 °F 30.9 °F 70% 30.22 in 10.0 mi WNW 8.1 mph - N/A   Clear
6:53 AM 39.9 °F 35.1 °F 32.0 °F 73% 30.23 in 10.0 mi WNW 6.9 mph - N/A   Clear
7:53 AM 43.0 °F 36.8 °F 33.1 °F 68% 30.25 in 10.0 mi NW 11.5 mph - N/A   Clear
8:53 AM 46.0 °F 39.9 °F 30.0 °F 54% 30.26 in 10.0 mi NW 13.8 mph 25.3 mph N/A   Clear
9:53 AM 48.9 °F - 26.1 °F 41% 30.26 in 10.0 mi NW 18.4 mph 25.3 mph N/A   Clear
10:53 AM 51.1 °F - 27.0 °F 39% 30.28 in 10.0 mi NNW 18.4 mph - N/A   Clear
11:53 AM 54.0 °F - 27.0 °F 35% 30.27 in 10.0 mi NNW 15.0 mph - N/A   Clear
12:53 PM 55.9 °F - 26.1 °F 32% 30.26 in 10.0 mi NNW 12.7 mph 24.2 mph N/A   Clear
1:53 PM 59.0 °F - 27.0 °F 29% 30.23 in 10.0 mi NW 16.1 mph 24.2 mph N/A   Clear
2:53 PM 60.1 °F - 27.0 °F 28% 30.21 in 10.0 mi WNW 15.0 mph 24.2 mph N/A   Clear
3:53 PM 62.1 °F - 26.1 °F 25% 30.18 in 10.0 mi NW 9.2 mph 18.4 mph N/A   Clear
4:53 PM 61.0 °F - 25.0 °F 25% 30.17 in 10.0 mi WNW 10.4 mph - N/A   Clear
5:53 PM 63.0 °F - 28.9 °F 28% 30.15 in 10.0 mi NW 9.2 mph - N/A   Clear
6:53 PM 62.1 °F - 27.0 °F 26% 30.15 in 10.0 mi North 6.9 mph - N/A   Clear
7:53 PM 54.0 °F - 34.0 °F 47% 30.15 in 10.0 mi Calm Calm - N/A   Clear
8:53 PM 51.1 °F - 30.9 °F 46% 30.16 in 10.0 mi Calm Calm - N/A   Clear
9:53 PM 48.0 °F - 35.1 °F 61% 30.18 in 10.0 mi South 3.5 mph - N/A   Clear
10:53 PM 50.0 °F - 32.0 °F 50% 30.18 in 10.0 mi South 4.6 mph - N/A   Clear
11:53 PM 48.0 °F - 32.0 °F 54% 30.19 in 10.0 mi SSE 3.5 mph - N/A   Clear